Hourly Data Report for October 23, 2014

All times are specified in Local Standard Time (LST). Add 1 hour to adjust for Daylight Saving Time where and when it is observed.

ARVIAT A
NUNAVUT

61°05'38.000" N
94°04'18.000" W
10.40 m
2300427
71174
YEK

Download Data

Hourly Data (October 2014)
Hourly Data Report for October 23, 2014
Temp Definition
°C
Dew Point Temp Definition
°C
Rel Hum Definition
%
Wind Dir Definition
10's deg

Wind Spd Definition
km/h
Visibility Definition
km
Stn Press Definition
kPa
Hmdx Definition


Wind Chill Definition


Weather Definition


TIME
00:00 Legend Double Dagger -2.3 -2.4 99 36 18 16.1 101.41   -8 LegendNANA
01:00 Legend Double Dagger -1.9 -2.0 99 36 21 16.1 101.46   -8 LegendNANA
02:00 Legend Double Dagger -1.4 -1.6 99 36 15 16.1 101.52   -6 LegendNANA
03:00 Legend Double Dagger -1.2 -1.2 100 1 17 1.2 101.57   -6 Fog
04:00 Legend Double Dagger -0.2 -0.2 100 1 11 2.0 101.62   -4 Fog
05:00 Legend Double Dagger 0.7 0.7 100 6 24 14.5 101.63     LegendNANA
06:00 Legend Double Dagger 0.5 0.4 99 5 30 16.1 101.63     LegendNANA
07:00 Legend Double Dagger 0.5 0.2 98 6 24 12.9 101.72     LegendNANA
08:00 Legend Double Dagger 0.6 0.2 97 7 37 16.1 101.71     LegendNANA
09:00 Legend Double Dagger 0.5 0.2 98 8 32 8.1 101.74     Fog
10:00 Legend Double Dagger 0.6 -0.1 95 9 39 12.9 101.77     LegendNANA
11:00 Legend Double Dagger 0.8 0.4 97 11 30 9.7 101.81     Fog
12:00 Legend Double Dagger 1.0 0.7 98 11 28 9.7 101.83     Fog
13:00 Legend Double Dagger 1.1 0.4 95 11 32 12.9 101.84     LegendNANA
14:00 Legend Double Dagger 1.2 0.5 95 10 28 16.1 101.85     LegendNANA
15:00 Legend Double Dagger 1.1 0.4 95 10 28 14.5 101.84     LegendNANA
16:00 Legend Double Dagger 0.8 -0.2 93 8 34 16.1 101.80     LegendNANA
17:00 Legend Double Dagger 0.7 -0.2 94 8 37 16.1 101.76     LegendNANA
18:00 Legend Double Dagger 0.7 -0.6 91 10 39 16.1 101.70     LegendNANA
19:00 Legend Double Dagger 0.8 -0.5 91 10 41 16.1 101.72     LegendNANA
20:00 Legend Double Dagger 0.7 -0.2 94 11 41 11.3 101.70     LegendNANA
21:00 Legend Double Dagger 0.5 -0.7 92 11 39 16.1 101.65     Rain
22:00 Legend Double Dagger 0.7 -0.2 94 11 39 16.1 101.59     Rain
23:00 Legend Double Dagger 0.5 -0.1 96 9 39 9.7 101.43     Rain,Fog

Notes on Data Quality.

Legend

  • E = Estimated
  • M = Missing
  • NA = Not Available
  • ‡ = Partner data that is not subject to review by the National Climate Archives
Date modified: